Location: Boca do Mato
(22.9085°S, 43.2930°W)
Time: 22:42:56
(UTC+00:00)

CZ-4B DEB - Pass Details

Date: 14 July 2020
Orbit: 840 x 862 km, 99.1° (Epoch: 10 August)

Event Time Altitude Azimuth Distance (km) Brightness Sun altitude
Rises 08:18:22 0° 359° (N) 3,382 7.5 -17.1°
Reaches altitude 10° 08:20:48 10° 353° (N) 2,457 6.7 -16.6°
Maximum altitude 08:26:00 45° 281° (W) 1,141 4.5 -15.5°
Drops below altitude 10° 08:31:17 10° 208° (SSW) 2,496 6.2 -14.3°
Enters shadow 08:31:30 - 208° (SSW) 2,578 6.3 -14.3°
